Location: Hauppauge
(40.8260°N, 73.2030°W)
Time: 10:17:33
(UTC-05:00)

Daily predictions for brighter satellites

Satellite Brightness Start Highest point End
(mag) Time Altitude Azimuth Time Altitude Azimuth Time Altitude Azimuth
Meteor 1-28 Rocket 4.4 17:27:55 10° NE 17:30:53 22° E 17:33:51 10° SSE
CZ-2C R/B 2.8 17:26:52 10° S 17:31:47 69° WSW 17:36:34 10° NNW
Abrixas 3.7 17:29:12 10° W 17:31:53 31° NNW 17:34:33 10° NE
Cosmos 1340 Rocket 2.9 17:29:52 10° S 17:33:43 56° E 17:37:34 10° NNE
Cosmos 1707 Rocket 4.3 17:29:51 10° NNE 17:33:43 31° ENE 17:37:36 10° SE
YAOGAN 1 2.7 17:30:42 10° SSE 17:35:01 83° WSW 17:39:23 10° NNW
COSMO-SKYMED 1 3.0 17:33:18 10° NNE 17:37:27 43° E 17:41:34 10° S
COSMOS 2441 4.3 17:34:06 10° SSE 17:38:57 78° ENE 17:43:47 10° N
CORIOLIS 4.3 17:33:46 10° S 17:39:07 80° WSW 17:44:31 10° NNW
SMAP 3.6 17:34:41 10° S 17:39:17 66° WSW 17:43:57 10° NNW
Cosmos 1666 Rocket 4.1 17:40:14 10° SSE 17:44:10 35° E 17:48:10 10° NNE
CENTAUR R/B 4.3 17:39:53 10° W 17:44:59 25° NW 17:50:37 10° NNE
ATLAS 5 CENTAUR R/B 4.2 17:43:50 10° N 17:45:19 11° NNE 17:46:50 10° NE
Lacrosse 4 Rocket 2.2 17:47:44 10° N 17:51:18 29° NE 17:54:51 10° ESE
Cosmos 1626 2.3 17:50:33 10° S 17:54:10 50° E 17:57:48 10° NNE
USA 229 DEB 4.0 17:51:16 10° S 17:57:48 50° ESE 18:04:28 10° NE
USA 229 4.0 17:51:22 10° S 17:57:54 50° ESE 18:04:33 10° NE
Resurs 01 Rocket 3.0 17:57:56 10° ESE 18:00:56 18° ENE 18:03:57 10° NNE
Cosmos 2219 Rocket 4.2 17:59:06 10° WSW 18:03:35 24° NW 18:08:04 10° N
Cosmos 2058 3.9 18:00:57 10° SSW 18:04:54 49° W 18:08:54 10° N
Cosmos 1184 Rocket 2.9 18:02:49 10° S 18:06:04 50° E 18:09:18 10° NNE
Cosmos 2279 Rocket 4.3 18:02:08 10° NNW 18:08:19 71° W 18:14:31 10° S
CZ-4C R/B 4.4 18:05:21 10° N 18:08:44 14° NNE 18:11:11 12° NE
Iridium 4 Rocket 3.7 18:06:20 10° SSE 18:10:16 32° E 18:14:01 10° NNE
Spot 2 Rocket 4.4 18:08:30 10° ESE 18:12:36 26° ENE 18:16:44 10° N
Cosmos 1603 4.1 18:07:54 10° S 18:13:08 42° ESE 18:17:31 14° NE
Cosmos 2333 Rocket 4.2 18:09:52 10° WSW 18:14:27 25° NW 18:19:04 10° N
Cosmos 1461 4.0 18:11:23 10° WSW 18:15:20 40° NW 18:19:11 10° NNE
FREGAT/IRIS 3.1 18:12:59 10° SE 18:15:49 36° ENE 18:18:40 10° N
Aureole 1 Rocket 3.9 18:10:33 10° S 18:15:57 65° ESE 18:23:06 10° NNE
Lacrosse 5 rocket 4.1 18:14:02 10° WNW 18:16:48 19° SW 18:19:39 10° S
Cosmos 1470 Rocket 4.2 18:13:28 10° SSE 18:17:20 32° E 18:19:51 18° NE
DMSP B5D1-3 4.4 18:13:07 10° NNE 18:18:15 83° ESE 18:23:21 10° SSW
Cosmos 1242 Rocket 3.0 18:16:39 10° N 18:19:51 33° ENE 18:23:03 10° SE
Cosmos 1455 2.1 18:17:33 10° N 18:21:22 84° E 18:25:12 10° S
Cosmos 1805 Rocket 4.2 18:17:46 10° SSW 18:22:09 57° W 18:26:34 10° N
Tiangong 1 2.1 18:19:35 10° SW 18:22:13 29° SSE 18:22:42 28° SE
Cosmos 1356 Rocket 3.6 18:20:10 10° SSW 18:24:07 68° W 18:28:07 10° N
SKYMED 2 4.3 18:21:17 10° N 18:25:32 54° WNW 18:29:46 10° SSW
Nadezhda 4 Rocket 4.0 18:20:53 10° S 18:27:08 86° E 18:33:30 10° N
Cosmos 2242 Rocket 3.5 18:25:48 10° N 18:30:13 68° E 18:34:40 10° SSE
Cosmos 2026 Rocket 4.4 18:25:16 10° SSE 18:30:52 37° E 18:36:25 10° NNE
Sich 1 3.4 18:28:31 10° SSW 18:32:56 68° W 18:37:22 10° N
Coronas F rocket 1.8 18:35:25 10° SSW 18:37:44 48° W 18:37:55 47° WNW
Cosmos 923 Rocket 3.9 18:33:47 10° S 18:38:57 74° ESE 18:42:58 17° NNE
Cosmos 2237 Rocket 4.5 18:39:32 10° W 18:43:31 19° NW 18:47:33 10° N
SJ-6B 2.9 18:39:37 10° SSE 18:43:42 84° WSW 18:47:53 10° NNW
Cosmos 1633 Rocket 3.7 18:40:26 10° SSW 18:44:46 57° W 18:49:07 10° N
Cosmos 1680 Rocket 3.4 18:39:49 10° S 18:44:58 64° ESE 18:47:47 27° NNE
Cosmos 972 Rocket 4.5 18:40:53 10° N 18:45:56 42° ENE 18:47:26 35° ESE
Cosmos 2369 Rocket 2.7 18:41:40 10° N 18:46:54 37° ENE 18:47:04 36° ENE
NOSS 3-1 (C) 3.7 18:43:33 10° S 18:48:54 42° ESE 18:50:00 38° E
Cosmos 1092 Rocket 4.0 18:44:12 10° S 18:50:33 86° W 18:56:56 10° N
SL-16 R/B 3.7 18:47:10 10° WSW 18:52:18 35° WNW 18:57:28 10° N
Lacrosse 5 3.7 18:53:28 10° NNW 18:56:21 16° NNE 18:56:21 16° NNE
Cosmos 1867 4.5 18:52:21 10° NNW 18:56:26 31° NNE 18:56:26 31° NNE
USA 215 3.2 18:56:43 34° ESE 18:59:47 70° NE 19:06:19 10° NW
ATLAS 3B R/B 4.4 18:56:29 10° N 19:00:10 15° NNE 19:00:18 15° NNE
ALOS 2.1 18:56:48 10° SSE 19:01:28 83° ENE 19:06:09 10° N
Cosmos 1862 Rocket 3.5 19:04:47 10° N 19:09:11 80° W 19:13:30 10° S
FENGYUN 3A 3.6 19:05:49 10° SSE 19:11:11 86° W 19:16:36 10° NNW
BREEZE-M DEB (TANK) 4.3 19:07:22 10° SSW 19:11:59 50° SE 19:15:10 39° E
Cosmos 292 Rocket 4.3 19:07:35 10° SSW 19:12:16 58° WNW 19:14:24 30° N
Cosmos 2195 Rocket 4.4 19:06:39 10° S 19:12:45 88° W 19:18:57 10° N
Cosmos 2112 Rocket 4.2 19:16:39 10° SSW 19:21:50 70° WNW 19:23:17 47° N
Meteor 2-20 Rocket 4.3 19:15:53 10° S 19:21:56 69° E 19:22:00 69° E
Cosmos 1943 3.1 19:23:20 10° SSW 19:28:35 77° S 19:28:35 77° S
Lacrosse 4 Rocket 3.6 19:26:36 10° NW 19:29:52 23° WSW 19:33:02 10° SSW
ATLAS 5 CENTAUR R/B 3.5 19:26:11 10° NNW 19:29:30 29° N 19:29:30 29° N
Resurs 01 Rocket 2.7 19:32:50 10° S 19:37:04 43° W 19:41:20 10° NNW
Cosmos 1417 Rocket 4.4 19:33:18 10° N 19:39:30 80° W 19:45:36 10° S
H-2A ROCKET BODY 3.8 19:30:33 10° W 19:43:54 31° SSW 19:45:25 28° S
Cosmos 1943 Rocket 4.0 19:42:51 10° NNW 19:44:32 20° N 19:44:32 20° N
Cosmos 1655 Rocket 4.4 19:45:26 10° SSW 19:51:42 60° W 19:57:59 10° N
CZ-4C R/B 3.9 19:52:37 10° NNW 19:56:23 30° N 19:56:23 30° N
NOSS 3-1 (A) 4.2 19:56:21 10° SW 20:00:05 43° SW 20:00:05 43° SW
Cosmos 2369 Rocket 4.1 20:25:53 10° NW 20:28:57 26° WNW 20:28:57 26° WNW
